Data No.,UTC Date,UTC Time,Latitude,Longitude,Course(deg),Sal(psu)
9787,2012/5/10,2:54:00,00-00.0400S,144-49.2800E,163,34.6905
9788,2012/5/10,2:55:00,00-00.2500S,144-49.3400E,163,34.6876
9789,2012/5/10,2:56:00,00-00.4600S,144-49.4000E,163,34.6849
9790,2012/5/10,2:57:00,00-00.6700S,144-49.4600E,163,---
9791,2012/5/10,2:58:00,00-00.8800S,144-49.5300E,163,34.6838
9792,2012/5/10,2:59:00,00-01.0900S,144-49.5900E,164,34.6842
9793,2012/5/10,3:00:00,00-01.3000S,144-49.6500E,164,34.685
9794,2012/5/10,3:01:00,00-01.5200S,144-49.7100E,163,34.6847
9795,2012/5/10,3:02:00,00-01.7500S,144-49.7700E,165,34.6869
9796,2012/5/10,3:03:00,00-01.9500S,144-49.8300E,164,34.6904
9797,2012/5/10,3:04:00,00-02.1700S,144-49.9000E,163,34.6897
9798,2012/5/10,3:05:00,00-02.3900S,144-49.9600E,164,34.6887
9799,2012/5/10,3:06:00,00-02.6000S,144-50.0200E,164,34.6881
9800,2012/5/10,3:07:00,00-02.8100S,144-50.0800E,164,34.6899
9801,2012/5/10,3:08:00,00-03.0300S,144-50.1400E,164,34.6925
9802,2012/5/10,3:09:00,00-03.2400S,144-50.1900E,164,34.6952
9803,2012/5/10,3:10:00,00-03.4500S,144-50.2500E,164,34.7004
9804,2012/5/10,3:11:00,00-03.6600S,144-50.3100E,163,34.7063
9805,2012/5/10,3:12:00,00-03.8800S,144-50.3700E,164,34.709
9806,2012/5/10,3:13:00,00-04.0900S,144-50.4300E,164,34.7011
9807,2012/5/10,3:14:00,00-04.3000S,144-50.4900E,164,34.6935
9808,2012/5/10,3:15:00,00-04.5100S,144-50.5500E,164,34.6848
9809,2012/5/10,3:16:00,00-04.7300S,144-50.6100E,165,34.6799
9810,2012/5/10,3:17:00,00-04.9400S,144-50.6600E,164,34.6752
9811,2012/5/10,3:18:00,00-05.1500S,144-50.7300E,164,34.6714
9812,2012/5/10,3:19:00,00-05.3600S,144-50.7800E,164,34.6179
9813,2012/5/10,3:20:00,00-05.5700S,144-50.8400E,163,34.595
9814,2012/5/10,3:21:00,00-05.7900S,144-50.9100E,164,34.5847
9815,2012/5/10,3:22:00,00-06.0000S,144-50.9600E,164,34.5659
9816,2012/5/10,3:23:00,00-06.2100S,144-51.0200E,164,34.5598
9817,2012/5/10,3:24:00,00-06.4200S,144-51.0800E,164,34.5602
9818,2012/5/10,3:25:00,00-06.6300S,144-51.1400E,164,34.5589
9819,2012/5/10,3:26:00,00-06.8600S,144-51.2100E,164,34.5577
9820,2012/5/10,3:27:00,00-07.0700S,144-51.2600E,164,34.5516
9821,2012/5/10,3:28:00,00-07.2900S,144-51.3200E,164,34.5425
9822,2012/5/10,3:29:00,00-07.5000S,144-51.3800E,164,34.5363
9823,2012/5/10,3:30:00,00-07.7100S,144-51.4400E,163,34.52
9824,2012/5/10,3:31:00,00-07.9200S,144-51.5000E,164,34.5017
9825,2012/5/10,3:32:00,00-08.1400S,144-51.5700E,163,34.4963
9826,2012/5/10,3:33:00,00-08.3500S,144-51.6300E,163,34.5058
9827,2012/5/10,3:34:00,00-08.5600S,144-51.6900E,164,34.5119
9828,2012/5/10,3:35:00,00-08.7700S,144-51.7500E,164,34.5205
9829,2012/5/10,3:36:00,00-08.9900S,144-51.8100E,164,34.5275
9830,2012/5/10,3:37:00,00-09.2000S,144-51.8700E,164,34.6441
9831,2012/5/10,3:38:00,00-09.4100S,144-51.9200E,164,34.6913
9832,2012/5/10,3:39:00,00-09.6200S,144-51.9800E,164,34.6849
9833,2012/5/10,3:40:00,00-09.8300S,144-52.0400E,163,34.6792
9834,2012/5/10,3:41:00,00-10.0500S,144-52.1000E,163,34.6561
9835,2012/5/10,3:42:00,00-10.2500S,144-52.1600E,164,34.6433
9836,2012/5/10,3:43:00,00-10.4700S,144-52.2200E,163,34.6345
9837,2012/5/10,3:44:00,00-10.6800S,144-52.2800E,163,34.6242
9838,2012/5/10,3:45:00,00-10.8900S,144-52.3400E,164,34.6096
9839,2012/5/10,3:46:00,00-11.1000S,144-52.4000E,163,34.5923
9840,2012/5/10,3:47:00,00-11.3200S,144-52.4600E,164,34.5839
9841,2012/5/10,3:48:00,00-11.5500S,144-52.5300E,164,34.5792
9842,2012/5/10,3:49:00,00-11.7600S,144-52.5800E,164,34.582
9843,2012/5/10,3:50:00,00-11.9700S,144-52.6400E,164,34.5888
9844,2012/5/10,3:51:00,00-12.1800S,144-52.7000E,164,34.6017
9845,2012/5/10,3:52:00,00-12.4000S,144-52.7600E,163,34.6152
9846,2012/5/10,3:53:00,00-12.6000S,144-52.8200E,163,34.6222
9847,2012/5/10,3:54:00,00-12.8100S,144-52.8800E,163,34.6472
9848,2012/5/10,3:55:00,00-13.0200S,144-52.9400E,163,34.6691
9849,2012/5/10,3:56:00,00-13.2300S,144-53.0000E,163,34.6667
9850,2012/5/10,3:57:00,00-13.4400S,144-53.0700E,163,34.552
9851,2012/5/10,3:58:00,00-13.6500S,144-53.1200E,164,34.5663
9852,2012/5/10,3:59:00,00-13.8600S,144-53.1900E,162,34.5385
9853,2012/5/10,4:00:00,00-14.0700S,144-53.2600E,160,34.5331
9854,2012/5/10,4:01:00,00-14.2700S,144-53.3400E,160,34.5233
9855,2012/5/10,4:02:00,00-14.4800S,144-53.4100E,160,34.5169
9856,2012/5/10,4:03:00,00-14.6900S,144-53.4900E,159,34.5179
9857,2012/5/10,4:04:00,00-14.8900S,144-53.5600E,159,34.5114
9858,2012/5/10,4:05:00,00-15.1000S,144-53.6400E,159,34.5152
9859,2012/5/10,4:06:00,00-15.3000S,144-53.7200E,160,34.5567
9860,2012/5/10,4:07:00,00-15.5100S,144-53.7900E,160,34.6082
9861,2012/5/10,4:08:00,00-15.7100S,144-53.8600E,159,34.6426
9862,2012/5/10,4:09:00,00-15.9200S,144-53.9400E,159,34.6465
9863,2012/5/10,4:10:00,00-16.1200S,144-54.0100E,159,34.6322
9864,2012/5/10,4:11:00,00-16.3300S,144-54.0900E,159,34.6135
9865,2012/5/10,4:12:00,00-16.5300S,144-54.1600E,159,34.5931
9866,2012/5/10,4:13:00,00-16.7500S,144-54.2400E,160,34.5735
9867,2012/5/10,4:14:00,00-16.9600S,144-54.3200E,160,34.572
9868,2012/5/10,4:15:00,00-17.1700S,144-54.3900E,160,34.5627
9869,2012/5/10,4:16:00,00-17.3800S,144-54.4700E,160,34.5452
9870,2012/5/10,4:17:00,00-17.5800S,144-54.5300E,161,34.5187
9871,2012/5/10,4:18:00,00-17.7800S,144-54.6100E,156,34.4945
9872,2012/5/10,4:19:00,00-17.9800S,144-54.7100E,153,34.4875
9873,2012/5/10,4:20:00,00-18.1700S,144-54.8000E,153,34.5035
9874,2012/5/10,4:21:00,00-18.3700S,144-54.9100E,152,34.5187
9875,2012/5/10,4:22:00,00-18.5600S,144-55.0000E,152,34.5189
9876,2012/5/10,4:23:00,00-18.7500S,144-55.1000E,153,34.5088
9877,2012/5/10,4:24:00,00-18.9500S,144-55.2000E,152,34.5159
9878,2012/5/10,4:25:00,00-19.1400S,144-55.3000E,153,34.5383
9879,2012/5/10,4:26:00,00-19.3400S,144-55.4000E,153,34.5121
9880,2012/5/10,4:27:00,00-19.5300S,144-55.5000E,152,34.4779
9881,2012/5/10,4:28:00,00-19.7200S,144-55.6000E,153,34.4414
9882,2012/5/10,4:29:00,00-19.9200S,144-55.7000E,153,34.3762
9883,2012/5/10,4:30:00,00-20.1100S,144-55.7900E,152,34.3487
9884,2012/5/10,4:31:00,00-20.3100S,144-55.8900E,152,34.3195
9885,2012/5/10,4:32:00,00-20.5000S,144-55.9900E,152,34.2664
9886,2012/5/10,4:33:00,00-20.6900S,144-56.0900E,153,34.2546
9887,2012/5/10,4:34:00,00-20.8900S,144-56.1900E,152,34.2548
9888,2012/5/10,4:35:00,00-21.0800S,144-56.2900E,152,34.2416
9889,2012/5/10,4:36:00,00-21.2700S,144-56.3900E,152,34.2376
9890,2012/5/10,4:37:00,00-21.4800S,144-56.5000E,152,34.2336
9891,2012/5/10,4:38:00,00-21.6800S,144-56.6000E,152,34.2287
9892,2012/5/10,4:39:00,00-21.8700S,144-56.7000E,152,34.2439
9893,2012/5/10,4:40:00,00-22.0600S,144-56.8000E,152,34.2703
9894,2012/5/10,4:41:00,00-22.2500S,144-56.9000E,151,34.2563
9895,2012/5/10,4:42:00,00-22.4500S,144-57.0000E,151,34.2261
9896,2012/5/10,4:43:00,00-22.6400S,144-57.1000E,151,34.2162
9897,2012/5/10,4:44:00,00-22.8300S,144-57.2000E,152,34.2071
9898,2012/5/10,4:45:00,00-23.0200S,144-57.3000E,151,34.2135
9899,2012/5/10,4:46:00,00-23.2100S,144-57.4100E,151,34.2281
9900,2012/5/10,4:47:00,00-23.4000S,144-57.5100E,151,34.2416
9901,2012/5/10,4:48:00,00-23.5900S,144-57.6100E,152,34.2767
9902,2012/5/10,4:49:00,00-23.7800S,144-57.7200E,151,34.3356
9903,2012/5/10,4:50:00,00-23.9700S,144-57.8200E,151,34.3504
9904,2012/5/10,4:51:00,00-24.1600S,144-57.9200E,151,34.3471
9905,2012/5/10,4:52:00,00-24.3500S,144-58.0200E,152,34.3437
9906,2012/5/10,4:53:00,00-24.5400S,144-58.1200E,151,34.3415
9907,2012/5/10,4:54:00,00-24.7400S,144-58.2300E,151,34.3439
9908,2012/5/10,4:55:00,00-24.9400S,144-58.3300E,151,34.358
9909,2012/5/10,4:56:00,00-25.1300S,144-58.4300E,151,34.3659
9910,2012/5/10,4:57:00,00-25.3200S,144-58.5300E,152,34.3689
9911,2012/5/10,4:58:00,00-25.5200S,144-58.6400E,152,34.3848
9912,2012/5/10,4:59:00,00-25.7200S,144-58.7400E,152,34.4155
9913,2012/5/10,5:00:00,00-25.9200S,144-58.8400E,152,34.4072
9914,2012/5/10,5:01:00,00-26.1300S,144-58.9500E,152,34.4269
9915,2012/5/10,5:02:00,00-26.3300S,144-59.0600E,152,34.4326
9916,2012/5/10,5:03:00,00-26.5200S,144-59.1600E,152,34.4372
9917,2012/5/10,5:04:00,00-26.7200S,144-59.2600E,152,34.4374
9918,2012/5/10,5:05:00,00-26.9100S,144-59.3600E,152,34.4564
9919,2012/5/10,5:06:00,00-27.1100S,144-59.4700E,152,34.473
9920,2012/5/10,5:07:00,00-27.3100S,144-59.5700E,152,34.4857
9921,2012/5/10,5:08:00,00-27.5000S,144-59.6700E,152,34.5237
9922,2012/5/10,5:09:00,00-27.7000S,144-59.7700E,152,34.5518
9923,2012/5/10,5:10:00,00-27.9000S,144-59.8700E,153,34.5897
9924,2012/5/10,5:11:00,00-28.1000S,144-59.9700E,152,34.6259
9925,2012/5/10,5:12:00,00-28.3000S,145-00.0800E,152,34.6349
9926,2012/5/10,5:13:00,00-28.4900S,145-00.1800E,153,34.6409
9927,2012/5/10,5:14:00,00-28.6900S,145-00.2800E,152,34.6563
9928,2012/5/10,5:15:00,00-28.8900S,145-00.3800E,152,34.6752
9929,2012/5/10,5:16:00,00-29.0800S,145-00.4800E,152,34.6832
9930,2012/5/10,5:17:00,00-29.2800S,145-00.5800E,153,34.6915
9931,2012/5/10,5:18:00,00-29.4800S,145-00.6800E,152,34.7
9932,2012/5/10,5:19:00,00-29.6800S,145-00.7800E,151,34.7071
9933,2012/5/10,5:20:00,00-29.8800S,145-00.8900E,151,34.7014
9934,2012/5/10,5:21:00,00-30.0700S,145-01.0000E,151,34.4513
9935,2012/5/10,5:22:00,00-30.2600S,145-01.1000E,152,34.2977
9936,2012/5/10,5:23:00,00-30.4600S,145-01.2000E,152,34.2487
9937,2012/5/10,5:24:00,00-30.6700S,145-01.3100E,152,34.3053
9938,2012/5/10,5:25:00,00-30.8700S,145-01.4100E,152,34.2871
9939,2012/5/10,5:26:00,00-31.0600S,145-01.5100E,152,34.2779
9940,2012/5/10,5:27:00,00-31.2600S,145-01.6100E,152,34.2227
9941,2012/5/10,5:28:00,00-31.4600S,145-01.7200E,151,34.2437
9942,2012/5/10,5:29:00,00-31.6500S,145-01.8200E,151,34.1267
9943,2012/5/10,5:30:00,00-31.8400S,145-01.9300E,151,34.033
9944,2012/5/10,5:31:00,00-32.0400S,145-02.0400E,150,33.9967
9945,2012/5/10,5:32:00,00-32.2300S,145-02.1400E,151,33.9793
9946,2012/5/10,5:33:00,00-32.4300S,145-02.2500E,151,34.0154
9947,2012/5/10,5:34:00,00-32.6200S,145-02.3500E,152,34.0251
9948,2012/5/10,5:35:00,00-32.8100S,145-02.4500E,151,34.0817
9949,2012/5/10,5:36:00,00-33.0100S,145-02.5600E,152,34.1054
9950,2012/5/10,5:37:00,00-33.2100S,145-02.6600E,152,34.1083
9951,2012/5/10,5:38:00,00-33.4000S,145-02.7700E,152,34.1285
9952,2012/5/10,5:39:00,00-33.6000S,145-02.8700E,151,34.1401
9953,2012/5/10,5:40:00,00-33.8000S,145-02.9700E,151,34.1437
9954,2012/5/10,5:41:00,00-33.9900S,145-03.0800E,151,34.1564
9955,2012/5/10,5:42:00,00-34.1900S,145-03.1800E,151,34.1739
9956,2012/5/10,5:43:00,00-34.3900S,145-03.2900E,151,34.1829
9957,2012/5/10,5:44:00,00-34.5800S,145-03.3900E,151,34.1797
9958,2012/5/10,5:45:00,00-34.7800S,145-03.5000E,151,34.1635
9959,2012/5/10,5:46:00,00-34.9800S,145-03.6000E,153,34.1561
9960,2012/5/10,5:47:00,00-35.2000S,145-03.7000E,154,34.1917
9961,2012/5/10,5:48:00,00-35.3900S,145-03.8000E,154,34.2067
9962,2012/5/10,5:49:00,00-35.6000S,145-03.8900E,154,34.1804
9963,2012/5/10,5:50:00,00-35.7900S,145-03.9900E,154,34.1229
9964,2012/5/10,5:51:00,00-36.0000S,145-04.0800E,155,34.1083
9965,2012/5/10,5:52:00,00-36.2000S,145-04.1700E,155,34.0492
9966,2012/5/10,5:53:00,00-36.4000S,145-04.2700E,154,34.0268
9967,2012/5/10,5:54:00,00-36.6100S,145-04.3600E,154,34.0334
9968,2012/5/10,5:55:00,00-36.8100S,145-04.4600E,155,34.0908
9969,2012/5/10,5:56:00,00-37.0100S,145-04.5500E,156,34.2795
9970,2012/5/10,5:57:00,00-37.2100S,145-04.6400E,155,34.4156
9971,2012/5/10,5:58:00,00-37.4100S,145-04.7300E,155,34.458
9972,2012/5/10,5:59:00,00-37.6200S,145-04.8200E,155,34.4853
9973,2012/5/10,6:00:00,00-37.8200S,145-04.9200E,155,34.5043
9974,2012/5/10,6:01:00,00-38.0200S,145-05.0100E,155,34.5157
9975,2012/5/10,6:02:00,00-38.2200S,145-05.1000E,155,34.5257
9976,2012/5/10,6:03:00,00-38.4200S,145-05.2000E,155,34.5341
9977,2012/5/10,6:04:00,00-38.6200S,145-05.2900E,155,34.5363
9978,2012/5/10,6:05:00,00-38.8200S,145-05.3800E,154,34.5315
9979,2012/5/10,6:06:00,00-39.0300S,145-05.4800E,155,34.527
9980,2012/5/10,6:07:00,00-39.2300S,145-05.5700E,155,34.5242
9981,2012/5/10,6:08:00,00-39.4300S,145-05.6600E,155,34.5221
9982,2012/5/10,6:09:00,00-39.6300S,145-05.7500E,155,34.511
9983,2012/5/10,6:10:00,00-39.8400S,145-05.8500E,155,34.5008
9984,2012/5/10,6:11:00,00-40.0600S,145-05.9500E,155,34.4935
9985,2012/5/10,6:12:00,00-40.2600S,145-06.0400E,155,34.4765
9986,2012/5/10,6:13:00,00-40.4600S,145-06.1300E,155,34.4498
9987,2012/5/10,6:14:00,00-40.6600S,145-06.2200E,155,34.4313
9988,2012/5/10,6:15:00,00-40.8700S,145-06.3200E,154,34.4265
9989,2012/5/10,6:16:00,00-41.0600S,145-06.4100E,154,34.4085
9990,2012/5/10,6:17:00,00-41.2700S,145-06.5000E,157,34.3983
9991,2012/5/10,6:18:00,00-41.4700S,145-06.5800E,157,34.3933
9992,2012/5/10,6:19:00,00-41.6800S,145-06.6600E,158,34.3919
9993,2012/5/10,6:20:00,00-41.8900S,145-06.7400E,159,34.3754
9994,2012/5/10,6:21:00,00-42.0900S,145-06.8200E,158,34.3647
9995,2012/5/10,6:22:00,00-42.2900S,145-06.9000E,158,34.3564
9996,2012/5/10,6:23:00,00-42.5000S,145-06.9800E,158,34.3457
9997,2012/5/10,6:24:00,00-42.7100S,145-07.0600E,158,34.3458
9998,2012/5/10,6:25:00,00-42.9200S,145-07.1400E,159,34.3438
9999,2012/5/10,6:26:00,00-43.1200S,145-07.2200E,159,34.3395
10000,2012/5/10,6:27:00,00-43.3300S,145-07.3000E,158,34.34
10001,2012/5/10,6:28:00,00-43.5300S,145-07.3800E,158,34.3464
10002,2012/5/10,6:29:00,00-43.7400S,145-07.4600E,158,34.353
10003,2012/5/10,6:30:00,00-43.9500S,145-07.5400E,158,34.3598
10004,2012/5/10,6:31:00,00-44.1600S,145-07.6200E,159,34.3581
10005,2012/5/10,6:32:00,00-44.3600S,145-07.7000E,158,34.3359
10006,2012/5/10,6:33:00,00-44.5600S,145-07.7700E,158,34.3006
10007,2012/5/10,6:34:00,00-44.7700S,145-07.8600E,158,34.2725
10008,2012/5/10,6:35:00,00-44.9900S,145-07.9400E,158,34.268
10009,2012/5/10,6:36:00,00-45.1900S,145-08.0200E,158,34.2714
10010,2012/5/10,6:37:00,00-45.4000S,145-08.1000E,158,34.2697
10011,2012/5/10,6:38:00,00-45.6100S,145-08.1800E,159,34.2577
10012,2012/5/10,6:39:00,00-45.8100S,145-08.2600E,158,34.2543
10013,2012/5/10,6:40:00,00-46.0200S,145-08.3400E,158,34.265
10014,2012/5/10,6:41:00,00-46.2300S,145-08.4200E,159,34.2613
10015,2012/5/10,6:42:00,00-46.4400S,145-08.5000E,158,34.2719
10016,2012/5/10,6:43:00,00-46.6500S,145-08.5800E,158,34.2732
10017,2012/5/10,6:44:00,00-46.8500S,145-08.6600E,157,34.2684
10018,2012/5/10,6:45:00,00-47.0500S,145-08.7500E,156,34.2581
10019,2012/5/10,6:46:00,00-47.2600S,145-08.8400E,156,34.2464
10020,2012/5/10,6:47:00,00-47.4700S,145-08.9200E,157,34.2497
10021,2012/5/10,6:48:00,00-47.6700S,145-09.0100E,157,34.2691
10022,2012/5/10,6:49:00,00-47.8800S,145-09.0900E,157,34.2921
10023,2012/5/10,6:50:00,00-48.0800S,145-09.1800E,157,34.3163
10024,2012/5/10,6:51:00,00-48.2900S,145-09.2600E,157,34.3323
10025,2012/5/10,6:52:00,00-48.5000S,145-09.3500E,157,34.3298
10026,2012/5/10,6:53:00,00-48.7000S,145-09.4300E,157,34.3188
10027,2012/5/10,6:54:00,00-48.9100S,145-09.5200E,157,34.334
10028,2012/5/10,6:55:00,00-49.1100S,145-09.6100E,157,34.3593
10029,2012/5/10,6:56:00,00-49.3200S,145-09.6900E,157,34.3994
10030,2012/5/10,6:57:00,00-49.5300S,145-09.7700E,157,34.4686
10031,2012/5/10,6:58:00,00-49.7500S,145-09.8700E,157,34.5454
10032,2012/5/10,6:59:00,00-49.9500S,145-09.9500E,157,34.5581
10033,2012/5/10,7:00:00,00-50.1600S,145-10.0400E,157,34.5485
10034,2012/5/10,7:01:00,00-50.3700S,145-10.1200E,157,34.5452
10035,2012/5/10,7:02:00,00-50.5700S,145-10.2000E,157,34.5502
10036,2012/5/10,7:03:00,00-50.7800S,145-10.2900E,158,34.5739
10037,2012/5/10,7:04:00,00-51.0000S,145-10.3700E,158,34.5756
10038,2012/5/10,7:05:00,00-51.2000S,145-10.4500E,158,34.5768
10039,2012/5/10,7:06:00,00-51.4100S,145-10.5400E,158,34.5784
10040,2012/5/10,7:07:00,00-51.6200S,145-10.6200E,158,34.5814
10041,2012/5/10,7:08:00,00-51.8200S,145-10.7000E,157,34.58
10042,2012/5/10,7:09:00,00-52.0400S,145-10.7900E,158,34.5741
10043,2012/5/10,7:10:00,00-52.2400S,145-10.8700E,158,34.5594
10044,2012/5/10,7:11:00,00-52.4500S,145-10.9500E,158,34.5473
10045,2012/5/10,7:12:00,00-52.6700S,145-11.0400E,157,34.5329
10046,2012/5/10,7:13:00,00-52.8700S,145-11.1200E,158,34.5182
10047,2012/5/10,7:14:00,00-53.0800S,145-11.2000E,158,34.5041
10048,2012/5/10,7:15:00,00-53.2900S,145-11.2900E,158,34.4965
10049,2012/5/10,7:16:00,00-53.5000S,145-11.3700E,158,34.4885
10050,2012/5/10,7:17:00,00-53.7100S,145-11.4500E,158,34.455
10051,2012/5/10,7:18:00,00-53.9100S,145-11.5300E,158,34.4762
10052,2012/5/10,7:19:00,00-54.1200S,145-11.6200E,158,34.4535
10053,2012/5/10,7:20:00,00-54.3300S,145-11.7000E,158,34.4428
10054,2012/5/10,7:21:00,00-54.5400S,145-11.7800E,158,34.4262
10055,2012/5/10,7:22:00,00-54.7700S,145-11.8700E,158,34.4086
10056,2012/5/10,7:23:00,00-54.9800S,145-11.9500E,158,34.3926
10057,2012/5/10,7:24:00,00-55.1900S,145-12.0300E,158,34.369
10058,2012/5/10,7:25:00,00-55.4000S,145-12.1100E,158,34.3572
10059,2012/5/10,7:26:00,00-55.6000S,145-12.2000E,157,34.3496
10060,2012/5/10,7:27:00,00-55.8100S,145-12.2800E,158,34.3295
10061,2012/5/10,7:28:00,00-56.0200S,145-12.3600E,158,34.3027
10062,2012/5/10,7:29:00,00-56.2300S,145-12.4400E,158,34.2965
10063,2012/5/10,7:30:00,00-56.4300S,145-12.5300E,158,34.3079
10064,2012/5/10,7:31:00,00-56.6400S,145-12.6100E,158,34.3041
10065,2012/5/10,7:32:00,00-56.8500S,145-12.6900E,158,34.2835
10066,2012/5/10,7:33:00,00-57.0600S,145-12.7700E,158,34.2837
10067,2012/5/10,7:34:00,00-57.2600S,145-12.8500E,158,34.2995
10068,2012/5/10,7:35:00,00-57.4700S,145-12.9300E,158,34.3237
10069,2012/5/10,7:36:00,00-57.6800S,145-13.0200E,158,34.351
10070,2012/5/10,7:37:00,00-57.8900S,145-13.1000E,158,34.3688
10071,2012/5/10,7:38:00,00-58.1000S,145-13.1800E,157,34.3867
10072,2012/5/10,7:39:00,00-58.3000S,145-13.2600E,158,34.3902
10073,2012/5/10,7:40:00,00-58.5100S,145-13.3500E,158,34.3976
10074,2012/5/10,7:41:00,00-58.7100S,145-13.4300E,158,34.4008
10075,2012/5/10,7:42:00,00-58.9200S,145-13.5100E,157,34.4019
10076,2012/5/10,7:43:00,00-59.1200S,145-13.5900E,158,34.4051
10077,2012/5/10,7:44:00,00-59.3300S,145-13.6700E,158,34.4081
10078,2012/5/10,7:45:00,00-59.5500S,145-13.7600E,158,34.4124
10079,2012/5/10,7:46:00,00-59.7600S,145-13.8500E,158,34.4152
10080,2012/5/10,7:47:00,00-59.9600S,145-13.9300E,158,34.4221
10081,2012/5/10,7:48:00,01-00.1600S,145-14.0100E,158,34.4207
10082,2012/5/10,7:49:00,01-00.3700S,145-14.0900E,158,34.4174
10083,2012/5/10,7:50:00,01-00.5700S,145-14.1700E,158,34.415
10084,2012/5/10,7:51:00,01-00.7800S,145-14.2500E,158,34.4125
10085,2012/5/10,7:52:00,01-00.9900S,145-14.3400E,157,34.4105
10086,2012/5/10,7:53:00,01-01.1900S,145-14.4200E,157,34.4074
10087,2012/5/10,7:54:00,01-01.3900S,145-14.5000E,157,34.4071
10088,2012/5/10,7:55:00,01-01.5900S,145-14.5800E,157,34.4144
10089,2012/5/10,7:56:00,01-01.8000S,145-14.6700E,158,34.4319
10090,2012/5/10,7:57:00,01-02.0000S,145-14.7500E,158,34.4321
10091,2012/5/10,7:58:00,01-02.2100S,145-14.8300E,158,34.4278
10092,2012/5/10,7:59:00,01-02.4100S,145-14.9100E,158,34.4163
10093,2012/5/10,8:00:00,01-02.6100S,145-14.9900E,158,34.3999
10094,2012/5/10,8:01:00,01-02.8200S,145-15.0700E,158,34.3885
10095,2012/5/10,8:02:00,01-03.0200S,145-15.1500E,158,34.3663
10096,2012/5/10,8:03:00,01-03.2200S,145-15.2300E,158,34.3777
10097,2012/5/10,8:04:00,01-03.4300S,145-15.3200E,158,34.3888
10098,2012/5/10,8:05:00,01-03.6300S,145-15.4000E,158,34.3865
10099,2012/5/10,8:06:00,01-03.8400S,145-15.4800E,158,34.3965
10100,2012/5/10,8:07:00,01-04.0400S,145-15.5600E,158,34.4132
10101,2012/5/10,8:08:00,01-04.2500S,145-15.6400E,157,34.4295
10102,2012/5/10,8:09:00,01-04.4500S,145-15.7300E,158,34.4357
10103,2012/5/10,8:10:00,01-04.6700S,145-15.8100E,158,34.4457
10104,2012/5/10,8:11:00,01-04.8800S,145-15.8900E,158,34.4573
10105,2012/5/10,8:12:00,01-05.0900S,145-15.9800E,158,34.4635
10106,2012/5/10,8:13:00,01-05.2800S,145-16.0600E,157,34.477
10107,2012/5/10,8:14:00,01-05.4900S,145-16.1400E,158,34.4872
10108,2012/5/10,8:15:00,01-05.7000S,145-16.2200E,158,34.5069
10109,2012/5/10,8:16:00,01-05.9100S,145-16.3000E,158,34.5202
10110,2012/5/10,8:17:00,01-06.1100S,145-16.3800E,158,34.5264
10111,2012/5/10,8:18:00,01-06.3100S,145-16.4600E,158,34.5192
10112,2012/5/10,8:19:00,01-06.5200S,145-16.5500E,158,34.5069
10113,2012/5/10,8:20:00,01-06.7300S,145-16.6300E,158,34.4992
10114,2012/5/10,8:21:00,01-06.9300S,145-16.7100E,158,34.4954
10115,2012/5/10,8:22:00,01-07.1400S,145-16.7900E,157,34.4873
10116,2012/5/10,8:23:00,01-07.3400S,145-16.8800E,156,34.4819
10117,2012/5/10,8:24:00,01-07.5400S,145-16.9600E,156,34.4803
10118,2012/5/10,8:25:00,01-07.7400S,145-17.0500E,156,34.4822
10119,2012/5/10,8:26:00,01-07.9400S,145-17.1400E,155,34.4772
10120,2012/5/10,8:27:00,01-08.1400S,145-17.2300E,155,34.4769
10121,2012/5/10,8:28:00,01-08.3400S,145-17.3200E,156,34.4661
10122,2012/5/10,8:29:00,01-08.5400S,145-17.4100E,156,34.4569
10123,2012/5/10,8:30:00,01-08.7400S,145-17.4900E,155,34.4553
10124,2012/5/10,8:31:00,01-08.9400S,145-17.5900E,155,34.4501
10125,2012/5/10,8:32:00,01-09.1300S,145-17.6700E,156,34.4352
10126,2012/5/10,8:33:00,01-09.3500S,145-17.7700E,155,34.4168
10127,2012/5/10,8:34:00,01-09.5500S,145-17.8600E,155,34.3967
10128,2012/5/10,8:35:00,01-09.7500S,145-17.9500E,154,34.3788
10129,2012/5/10,8:36:00,01-09.9400S,145-18.0400E,155,34.3584
10130,2012/5/10,8:37:00,01-10.1400S,145-18.1300E,155,34.3435
10131,2012/5/10,8:38:00,01-10.3400S,145-18.2200E,155,34.3478
10132,2012/5/10,8:39:00,01-10.5400S,145-18.3100E,155,34.375
10133,2012/5/10,8:40:00,01-10.7300S,145-18.4000E,155,34.3855
10134,2012/5/10,8:41:00,01-10.9300S,145-18.4900E,155,34.3944
10135,2012/5/10,8:42:00,01-11.1300S,145-18.5800E,155,34.3994
10136,2012/5/10,8:43:00,01-11.3300S,145-18.6700E,155,34.4043
10137,2012/5/10,8:44:00,01-11.5200S,145-18.7500E,155,34.3902
10138,2012/5/10,8:45:00,01-11.7200S,145-18.8400E,155,34.3901
10139,2012/5/10,8:46:00,01-11.9200S,145-18.9300E,154,34.3941
10140,2012/5/10,8:47:00,01-12.1200S,145-19.0200E,155,34.4012
10141,2012/5/10,8:48:00,01-12.3200S,145-19.1100E,155,34.4035
10142,2012/5/10,8:49:00,01-12.5100S,145-19.2000E,155,34.4166
10143,2012/5/10,8:50:00,01-12.7100S,145-19.2900E,155,34.4133
10144,2012/5/10,8:51:00,01-12.9100S,145-19.3800E,155,34.415
10145,2012/5/10,8:52:00,01-13.1100S,145-19.4700E,155,34.412
10146,2012/5/10,8:53:00,01-13.3000S,145-19.5600E,155,34.4145
10147,2012/5/10,8:54:00,01-13.5000S,145-19.6400E,155,34.4273
10148,2012/5/10,8:55:00,01-13.7000S,145-19.7300E,156,34.4343
10149,2012/5/10,8:56:00,01-13.9100S,145-19.8300E,155,34.4191
10150,2012/5/10,8:57:00,01-14.1100S,145-19.9200E,155,34.4217
10151,2012/5/10,8:58:00,01-14.3100S,145-20.0100E,155,34.4289
10152,2012/5/10,8:59:00,01-14.5000S,145-20.1000E,156,34.4357
10153,2012/5/10,9:00:00,01-14.7100S,145-20.1900E,155,34.446
10154,2012/5/10,9:01:00,01-14.9100S,145-20.2800E,155,34.4538
10155,2012/5/10,9:02:00,01-15.1000S,145-20.3700E,155,34.452
10156,2012/5/10,9:03:00,01-15.3000S,145-20.4600E,155,34.4413
10157,2012/5/10,9:04:00,01-15.5000S,145-20.5500E,155,34.4383
10158,2012/5/10,9:05:00,01-15.6900S,145-20.6400E,155,34.4372
10159,2012/5/10,9:06:00,01-15.8900S,145-20.7300E,155,34.4313
10160,2012/5/10,9:07:00,01-16.0900S,145-20.8200E,155,34.4278
10161,2012/5/10,9:08:00,01-16.2800S,145-20.9100E,154,34.4603
10162,2012/5/10,9:09:00,01-16.4800S,145-21.0000E,155,34.5636
10163,2012/5/10,9:10:00,01-16.6800S,145-21.0900E,155,34.591
10164,2012/5/10,9:11:00,01-16.8800S,145-21.1800E,156,34.6478
10165,2012/5/10,9:12:00,01-17.0800S,145-21.2700E,155,34.6824
10166,2012/5/10,9:13:00,01-17.2800S,145-21.3600E,156,34.6924
10167,2012/5/10,9:14:00,01-17.4700S,145-21.4500E,155,34.6929
10168,2012/5/10,9:15:00,01-17.6800S,145-21.5400E,155,34.6944
10169,2012/5/10,9:16:00,01-17.8700S,145-21.6200E,155,34.6938
10170,2012/5/10,9:17:00,01-18.0700S,145-21.7100E,155,34.6936
10171,2012/5/10,9:18:00,01-18.2700S,145-21.8000E,155,34.6962
10172,2012/5/10,9:19:00,01-18.4700S,145-21.8900E,155,34.7009
10173,2012/5/10,9:20:00,01-18.6900S,145-22.0000E,155,34.7084
10174,2012/5/10,9:21:00,01-18.8900S,145-22.0800E,155,34.7193
10175,2012/5/10,9:22:00,01-19.0800S,145-22.1700E,155,34.7277
10176,2012/5/10,9:23:00,01-19.2900S,145-22.2700E,155,34.737